Precipitable_Water
0.32 0.30 0.30 0.28 0.28 0.26 0.26 0.24 0.24 0.24 0.24 0.24 0.24 0.24 0.24 0.24 0.24 0.24 0.24 0.22 0.22 0.22 0.22 0.22 0.22 0.22 0.22 0.22 0.22 0.22 0.22 0.24 0.24 0.24 0.24 0.26 0.26 0.26 0.28 0.28 0.30 0.30 0.30 0.30 0.32 0.32 0.32 0.32 0.32 0.32 0.34 0.34 0.34 0.34 0.34 0.34 0.34 0.34 0.34 0.32 0.32 0.34 0.34 0.34 0.34 0.36 0.36 0.36 0.36 0.38 0.38 0.38 0.38 0.38 0.38 0.38 0.38 0.38 0.36 0.36 0.38 0.38 0.38 0.40 0.40 0.42
0.32 0.30 0.28 0.28 0.26 0.24 0.24 0.24 0.24 0.24 0.24 0.24 0.24 0.24 0.24 0.24 0.24 0.22 0.22 0.22 0.22 0.22 0.22 0.22 0.22 0.22 0.22 0.22 0.22 0.22 0.22 0.24 0.24 0.24 0.24 0.26 0.26 0.28 0.28 0.28 0.30 0.30 0.30 0.32 0.32 0.32 0.32 0.32 0.34 0.34 0.34 0.34 0.34 0.34 0.34 0.34 0.34 0.34 0.34 0.34 0.34 0.34 0.34 0.34 0.34 0.36 0.36 0.36 0.34 0.36 0.36 0.36 0.36 0.36 0.36 0.36 0.36 0.36 0.36 0.36 0.38 0.38 0.40 0.40 0.40 0.42
0.30 0.30 0.28 0.26 0.26 0.24 0.24 0.24 0.24 0.24 0.24 0.24 0.24 0.24 0.24 0.24 0.22 0.22 0.22 0.22 0.22 0.24 0.24 0.24 0.22 0.22 0.22 0.22 0.22 0.24 0.24 0.24 0.24 0.26 0.26 0.26 0.28 0.28 0.28 0.30 0.30 0.30 0.32 0.32 0.32 0.32 0.32 0.34 0.34 0.34 0.34 0.34 0.34 0.34 0.34 0.34 0.34 0.34 0.32 0.32 0.32 0.32 0.34 0.34 0.34 0.34 0.34 0.32 0.32 0.34 0.34 0.34 0.34 0.34 0.34 0.36 0.36 0.36 0.34 0.36 0.36 0.38 0.38 0.38 0.40 0.40
0.30 0.28 0.26 0.26 0.26 0.24 0.24 0.24 0.24 0.24 0.24 0.24 0.24 0.24 0.24 0.24 0.22 0.22 0.24 0.22 0.24 0.24 0.24 0.24 0.24 0.24 0.24 0.24 0.24 0.24 0.24 0.24 0.26 0.26 0.26 0.26 0.28 0.28 0.28 0.30 0.30 0.30 0.32 0.32 0.32 0.32 0.34 0.32 0.32 0.32 0.32 0.32 0.32 0.34 0.32 0.32 0.32 0.32 0.30 0.30 0.30 0.30 0.32 0.32 0.32 0.30 0.32 0.32 0.32 0.32 0.32 0.32 0.32 0.34 0.32 0.32 0.34 0.34 0.34 0.34 0.36 0.36 0.38 0.38 0.40 0.40
0.28 0.26 0.26 0.24 0.24 0.24 0.24 0.24 0.24 0.24 0.24 0.24 0.24 0.24 0.24 0.24 0.24 0.24 0.24 0.24 0.24 0.24 0.24 0.24 0.24 0.24 0.24 0.24 0.24 0.24 0.24 0.26 0.26 0.26 0.26 0.28 0.28 0.28 0.28 0.30 0.30 0.30 0.32 0.32 0.32 0.32 0.32 0.32 0.32 0.32 0.32 0.32 0.32 0.32 0.32 0.32 0.32 0.32 0.30 0.30 0.30 0.30 0.30 0.30 0.30 0.32 0.30 0.32 0.32 0.32 0.32 0.32 0.32 0.32 0.32 0.32 0.32 0.32 0.32 0.34 0.34 0.36 0.36 0.38 0.38 0.38
0.28 0.26 0.26 0.24 0.24 0.24 0.24 0.24 0.24 0.24 0.24 0.24 0.24 0.24 0.24 0.24 0.24 0.24 0.24 0.24 0.24 0.24 0.24 0.24 0.24 0.24 0.26 0.26 0.26 0.26 0.26 0.26 0.26 0.26 0.26 0.26 0.28 0.28 0.28 0.28 0.30 0.30 0.30 0.32 0.32 0.32 0.32 0.32 0.32 0.32 0.32 0.32 0.32 0.32 0.30 0.30 0.30 0.30 0.30 0.30 0.30 0.30 0.32 0.32 0.32 0.32 0.32 0.32 0.32 0.32 0.32 0.32 0.32 0.32 0.30 0.30 0.30 0.32 0.32 0.34 0.34 0.34 0.34 0.36 0.36 0.38
0.28 0.26 0.26 0.24 0.24 0.24 0.24 0.24 0.24 0.26 0.24 0.24 0.24 0.24 0.24 0.24 0.24 0.24 0.24 0.24 0.24 0.24 0.24 0.24 0.24 0.26 0.26 0.26 0.26 0.26 0.26 0.26 0.26 0.26 0.26 0.26 0.26 0.28 0.28 0.28 0.28 0.30 0.30 0.30 0.30 0.30 0.32 0.32 0.32 0.32 0.32 0.32 0.30 0.30 0.30 0.30 0.30 0.30 0.32 0.32 0.32 0.32 0.34 0.32 0.32 0.32 0.32 0.32 0.32 0.30 0.30 0.32 0.32 0.32 0.30 0.32 0.32 0.32 0.32 0.34 0.34 0.34 0.34 0.36 0.36 0.36
0.26 0.26 0.24 0.24 0.24 0.24 0.24 0.24 0.24 0.26 0.26 0.24 0.24 0.24 0.24 0.24 0.24 0.24 0.24 0.24 0.24 0.24 0.24 0.24 0.26 0.26 0.26 0.26 0.26 0.26 0.26 0.26 0.26 0.26 0.26 0.26 0.26 0.26 0.28 0.28 0.28 0.28 0.28 0.28 0.30 0.30 0.30 0.30 0.30 0.30 0.30 0.30 0.28 0.28 0.28 0.28 0.28 0.30 0.30 0.32 0.32 0.32 0.32 0.32 0.30 0.28 0.30 0.30 0.30 0.28 0.30 0.30 0.30 0.32 0.32 0.32 0.32 0.32 0.34 0.34 0.34 0.34 0.34 0.34 0.34 0.36
0.26 0.26 0.24 0.24 0.24 0.24 0.24 0.24 0.24 0.26 0.26 0.26 0.24 0.24 0.24 0.24 0.24 0.24 0.24 0.24 0.24 0.24 0.26 0.26 0.26 0.26 0.26 0.26 0.26 0.26 0.26 0.24 0.24 0.24 0.24 0.24 0.24 0.24 0.26 0.26 0.26 0.28 0.28 0.28 0.28 0.28 0.28 0.28 0.28 0.28 0.28 0.28 0.28 0.28 0.28 0.28 0.28 0.28 0.28 0.28 0.30 0.30 0.28 0.28 0.28 0.28 0.28 0.28 0.28 0.28 0.28 0.30 0.30 0.30 0.32 0.32 0.32 0.32 0.32 0.34 0.34 0.34 0.34 0.34 0.34 0.34
0.26 0.26 0.24 0.24 0.24 0.24 0.24 0.24 0.24 0.26 0.26 0.26 0.26 0.26 0.26 0.24 0.24 0.24 0.22 0.22 0.24 0.24 0.26 0.26 0.26 0.26 0.26 0.26 0.26 0.26 0.24 0.22 0.22 0.22 0.22 0.22 0.24 0.24 0.24 0.26 0.26 0.26 0.26 0.26 0.26 0.26 0.28 0.26 0.26 0.28 0.28 0.26 0.26 0.26 0.26 0.26 0.26 0.26 0.26 0.26 0.26 0.26 0.26 0.26 0.26 0.26 0.28 0.28 0.28 0.28 0.28 0.28 0.28 0.30 0.30 0.30 0.30 0.32 0.32 0.32 0.34 0.34 0.34 0.34 0.34 0.32
0.26 0.26 0.24 0.24 0.24 0.24 0.24 0.24 0.26 0.26 0.26 0.26 0.28 0.28 0.28 0.26 0.24 0.24 0.22 0.22 0.24 0.24 0.28 0.28 0.26 0.26 0.22 0.22 0.22 0.22 0.22 0.22 0.22 0.22 0.22 0.22 0.24 0.24 0.26 0.26 0.26 0.26 0.26 0.26 0.26 0.26 0.26 0.26 0.26 0.26 0.26 0.26 0.26 0.26 0.24 0.26 0.26 0.26 0.26 0.26 0.26 0.26 0.26 0.26 0.26 0.26 0.26 0.28 0.28 0.28 0.28 0.28 0.28 0.28 0.28 0.30 0.30 0.32 0.32 0.32 0.32 0.32 0.32 0.32 0.32 0.32
0.26 0.26 0.24 0.24 0.24 0.24 0.24 0.26 0.26 0.28 0.28 0.28 0.26 0.24 0.26 0.26 0.24 0.24 0.22 0.22 0.22 0.24 0.26 0.26 0.24 0.24 0.22 0.22 0.22 0.22 0.22 0.20 0.20 0.20 0.22 0.22 0.24 0.24 0.24 0.24 0.26 0.26 0.26 0.24 0.24 0.24 0.26 0.24 0.24 0.24 0.24 0.24 0.24 0.24 0.24 0.24 0.24 0.24 0.24 0.26 0.26 0.26 0.26 0.26 0.26 0.26 0.26 0.26 0.28 0.28 0.28 0.28 0.28 0.28 0.28 0.30 0.32 0.32 0.32 0.32 0.32 0.32 0.32 0.32 0.32 0.34
0.26 0.26 0.24 0.24 0.24 0.24 0.24 0.24 0.26 0.26 0.26 0.26 0.24 0.22 0.22 0.24 0.24 0.24 0.24 0.24 0.24 0.24 0.24 0.24 0.22 0.22 0.20 0.22 0.22 0.22 0.22 0.22 0.22 0.22 0.22 0.22 0.22 0.24 0.24 0.24 0.24 0.24 0.24 0.24 0.24 0.24 0.24 0.24 0.24 0.24 0.24 0.24 0.24 0.24 0.24 0.24 0.24 0.24 0.24 0.24 0.24 0.24 0.24 0.26 0.26 0.26 0.26 0.26 0.28 0.28 0.28 0.28 0.28 0.28 0.30 0.32 0.32 0.32 0.32 0.32 0.32 0.32 0.32 0.32 0.34 0.36
0.26 0.24 0.24 0.24 0.24 0.24 0.24 0.24 0.24 0.24 0.24 0.24 0.24 0.24 0.22 0.22 0.24 0.24 0.26 0.26 0.26 0.24 0.24 0.22 0.22 0.20 0.20 0.22 0.22 0.22 0.22 0.22 0.22 0.22 0.22 0.22 0.22 0.24 0.24 0.24 0.22 0.22 0.24 0.24 0.24 0.24 0.24 0.24 0.24 0.22 0.22 0.24 0.24 0.24 0.24 0.24 0.24 0.24 0.24 0.24 0.24 0.24 0.26 0.26 0.26 0.26 0.28 0.28 0.28 0.28 0.28 0.28 0.28 0.28 0.30 0.30 0.32 0.32 0.34 0.32 0.32 0.32 0.32 0.34 0.34 0.36
0.26 0.24 0.24 0.24 0.24 0.24 0.26 0.26 0.24 0.24 0.24 0.24 0.24 0.24 0.24 0.24 0.24 0.24 0.26 0.24 0.24 0.24 0.22 0.20 0.20 0.20 0.20 0.22 0.22 0.22 0.22 0.22 0.20 0.20 0.20 0.20 0.22 0.22 0.24 0.22 0.22 0.22 0.24 0.22 0.24 0.24 0.24 0.24 0.24 0.24 0.22 0.24 0.24 0.24 0.24 0.24 0.24 0.24 0.26 0.26 0.26 0.26 0.26 0.26 0.26 0.28 0.28 0.28 0.28 0.28 0.28 0.28 0.28 0.30 0.30 0.32 0.32 0.32 0.34 0.32 0.32 0.32 0.32 0.34 0.36 0.36
0.26 0.26 0.24 0.24 0.24 0.24 0.26 0.26 0.26 0.26 0.24 0.24 0.24 0.24 0.22 0.22 0.24 0.24 0.24 0.24 0.22 0.22 0.20 0.20 0.20 0.20 0.20 0.22 0.22 0.22 0.22 0.22 0.20 0.20 0.20 0.20 0.20 0.22 0.24 0.22 0.22 0.22 0.22 0.22 0.22 0.22 0.24 0.24 0.24 0.24 0.24 0.24 0.24 0.24 0.24 0.26 0.26 0.26 0.26 0.26 0.26 0.26 0.28 0.28 0.28 0.28 0.28 0.28 0.28 0.28 0.28 0.30 0.30 0.30 0.30 0.30 0.30 0.32 0.32 0.30 0.32 0.32 0.34 0.34 0.36 0.36
0.26 0.26 0.26 0.26 0.26 0.26 0.26 0.26 0.26 0.26 0.26 0.24 0.24 0.24 0.24 0.24 0.24 0.24 0.24 0.22 0.22 0.22 0.20 0.20 0.18 0.18 0.18 0.18 0.20 0.22 0.22 0.22 0.20 0.20 0.20 0.20 0.20 0.22 0.24 0.22 0.22 0.22 0.22 0.22 0.22 0.22 0.22 0.22 0.22 0.22 0.24 0.24 0.24 0.24 0.24 0.26 0.26 0.26 0.26 0.26 0.28 0.28 0.28 0.28 0.28 0.28 0.28 0.28 0.28 0.28 0.30 0.30 0.30 0.28 0.30 0.30 0.30 0.30 0.30 0.30 0.32 0.32 0.34 0.34 0.34 0.36
0.28 0.28 0.28 0.26 0.26 0.26 0.26 0.26 0.26 0.26 0.24 0.24 0.24 0.24 0.26 0.26 0.26 0.24 0.22 0.22 0.20 0.20 0.20 0.20 0.18 0.18 0.18 0.18 0.18 0.20 0.22 0.22 0.20 0.20 0.20 0.18 0.18 0.20 0.22 0.22 0.22 0.20 0.20 0.20 0.20 0.22 0.22 0.22 0.22 0.22 0.22 0.22 0.24 0.24 0.24 0.24 0.26 0.26 0.26 0.26 0.26 0.26 0.26 0.26 0.28 0.28 0.28 0.28 0.28 0.28 0.28 0.28 0.28 0.28 0.30 0.30 0.30 0.30 0.30 0.32 0.32 0.32 0.34 0.34 0.34 0.36
0.28 0.30 0.30 0.28 0.28 0.28 0.26 0.26 0.24 0.24 0.24 0.24 0.24 0.26 0.26 0.26 0.24 0.24 0.22 0.22 0.22 0.22 0.22 0.20 0.20 0.20 0.18 0.18 0.20 0.20 0.22 0.22 0.20 0.20 0.18 0.18 0.18 0.20 0.22 0.22 0.22 0.20 0.20 0.20 0.20 0.20 0.22 0.22 0.22 0.22 0.22 0.22 0.24 0.24 0.24 0.24 0.26 0.26 0.26 0.26 0.26 0.26 0.26 0.28 0.28 0.28 0.28 0.28 0.28 0.28 0.28 0.28 0.28 0.28 0.28 0.30 0.30 0.30 0.32 0.32 0.34 0.34 0.34 0.34 0.34 0.34
0.30 0.32 0.30 0.30 0.30 0.28 0.26 0.26 0.24 0.24 0.24 0.26 0.26 0.26 0.24 0.24 0.24 0.22 0.22 0.22 0.22 0.22 0.22 0.22 0.22 0.20 0.20 0.20 0.20 0.22 0.22 0.20 0.20 0.18 0.18 0.18 0.18 0.20 0.22 0.22 0.20 0.20 0.20 0.20 0.20 0.20 0.22 0.22 0.22 0.22 0.22 0.24 0.24 0.24 0.24 0.24 0.24 0.26 0.26 0.26 0.26 0.26 0.26 0.26 0.26 0.26 0.26 0.28 0.28 0.28 0.28 0.28 0.28 0.28 0.28 0.30 0.30 0.30 0.32 0.32 0.32 0.32 0.32 0.32 0.34 0.34
0.32 0.32 0.32 0.32 0.30 0.28 0.24 0.24 0.24 0.24 0.24 0.26 0.26 0.26 0.24 0.24 0.22 0.22 0.22 0.22 0.22 0.22 0.22 0.22 0.22 0.20 0.22 0.20 0.20 0.20 0.22 0.20 0.20 0.18 0.18 0.16 0.18 0.20 0.20 0.20 0.20 0.18 0.18 0.20 0.20 0.22 0.22 0.22 0.22 0.22 0.22 0.22 0.24 0.24 0.24 0.24 0.24 0.24 0.26 0.24 0.24 0.24 0.24 0.24 0.26 0.26 0.26 0.26 0.26 0.28 0.28 0.28 0.28 0.28 0.28 0.28 0.28 0.28 0.30 0.30 0.30 0.32 0.32 0.32 0.34 0.36
0.34 0.32 0.32 0.32 0.30 0.26 0.24 0.24 0.24 0.24 0.26 0.26 0.26 0.26 0.24 0.24 0.22 0.22 0.22 0.22 0.24 0.22 0.22 0.22 0.22 0.22 0.22 0.22 0.20 0.20 0.22 0.20 0.18 0.18 0.16 0.16 0.16 0.16 0.18 0.20 0.20 0.18 0.18 0.18 0.18 0.20 0.22 0.22 0.22 0.22 0.22 0.22 0.22 0.22 0.24 0.24 0.24 0.24 0.24 0.24 0.24 0.24 0.24 0.24 0.26 0.26 0.26 0.26 0.26 0.26 0.26 0.28 0.26 0.26 0.26 0.28 0.28 0.28 0.30 0.30 0.30 0.30 0.32 0.34 0.34 0.36
0.34 0.32 0.30 0.30 0.28 0.26 0.24 0.24 0.24 0.26 0.26 0.28 0.28 0.26 0.26 0.24 0.24 0.26 0.24 0.24 0.24 0.24 0.24 0.22 0.22 0.22 0.22 0.22 0.20 0.20 0.20 0.18 0.18 0.18 0.16 0.15 0.15 0.16 0.18 0.18 0.18 0.18 0.18 0.18 0.18 0.20 0.20 0.20 0.20 0.20 0.20 0.22 0.22 0.22 0.22 0.22 0.22 0.22 0.24 0.24 0.24 0.24 0.24 0.24 0.24 0.24 0.26 0.26 0.26 0.26 0.28 0.26 0.26 0.26 0.26 0.26 0.28 0.28 0.28 0.30 0.30 0.32 0.32 0.34 0.36 0.38
0.30 0.30 0.28 0.28 0.28 0.26 0.24 0.24 0.24 0.26 0.28 0.30 0.30 0.30 0.28 0.28 0.28 0.28 0.28 0.26 0.26 0.24 0.24 0.22 0.22 0.22 0.20 0.20 0.20 0.18 0.18 0.18 0.18 0.18 0.16 0.15 0.15 0.16 0.18 0.18 0.18 0.16 0.16 0.18 0.18 0.20 0.20 0.20 0.20 0.20 0.20 0.22 0.22 0.22 0.22 0.22 0.22 0.22 0.22 0.24 0.24 0.24 0.24 0.24 0.24 0.26 0.26 0.28 0.28 0.28 0.30 0.28 0.28 0.28 0.28 0.28 0.28 0.28 0.28 0.28 0.30 0.32 0.34 0.36 0.38 0.38
0.28 0.28 0.26 0.26 0.24 0.24 0.26 0.28 0.28 0.30 0.30 0.32 0.32 0.32 0.32 0.30 0.30 0.28 0.28 0.26 0.24 0.22 0.22 0.20 0.20 0.18 0.18 0.18 0.18 0.18 0.18 0.18 0.18 0.16 0.16 0.15 0.15 0.16 0.16 0.18 0.18 0.18 0.16 0.18 0.20 0.20 0.20 0.20 0.20 0.20 0.20 0.22 0.22 0.22 0.22 0.22 0.22 0.22 0.24 0.22 0.24 0.24 0.24 0.24 0.26 0.26 0.26 0.28 0.28 0.28 0.28 0.30 0.30 0.30 0.28 0.28 0.30 0.30 0.30 0.30 0.32 0.34 0.34 0.36 0.38 0.38
0.26 0.26 0.26 0.24 0.24 0.26 0.30 0.32 0.32 0.32 0.34 0.34 0.34 0.32 0.32 0.32 0.28 0.26 0.24 0.24 0.22 0.20 0.20 0.18 0.18 0.16 0.16 0.16 0.16 0.16 0.16 0.18 0.18 0.16 0.16 0.15 0.15 0.15 0.16 0.18 0.18 0.18 0.18 0.20 0.20 0.20 0.20 0.20 0.22 0.22 0.22 0.22 0.22 0.22 0.22 0.22 0.22 0.22 0.22 0.22 0.22 0.24 0.24 0.24 0.24 0.24 0.22 0.24 0.24 0.24 0.24 0.26 0.26 0.28 0.28 0.28 0.30 0.30 0.30 0.30 0.32 0.34 0.34 0.36 0.38 0.38
0.28 0.28 0.28 0.28 0.28 0.30 0.34 0.36 0.36 0.36 0.36 0.34 0.32 0.32 0.30 0.30 0.26 0.22 0.22 0.22 0.20 0.20 0.20 0.18 0.16 0.16 0.16 0.16 0.16 0.16 0.16 0.16 0.16 0.16 0.16 0.16 0.15 0.15 0.16 0.18 0.18 0.18 0.18 0.20 0.20 0.20 0.22 0.22 0.22 0.22 0.22 0.22 0.22 0.22 0.22 0.22 0.22 0.22 0.22 0.22 0.22 0.22 0.24 0.22 0.22 0.22 0.24 0.24 0.24 0.24 0.26 0.26 0.26 0.26 0.28 0.30 0.30 0.32 0.32 0.32 0.32 0.34 0.36 0.36 0.38 0.38
0.30 0.30 0.30 0.30 0.32 0.34 0.36 0.38 0.38 0.36 0.36 0.32 0.30 0.30 0.30 0.28 0.24 0.20 0.20 0.20 0.20 0.20 0.18 0.18 0.16 0.16 0.16 0.16 0.16 0.16 0.16 0.16 0.16 0.16 0.16 0.16 0.15 0.15 0.15 0.16 0.18 0.18 0.20 0.18 0.20 0.20 0.22 0.22 0.22 0.22 0.22 0.22 0.22 0.22 0.22 0.22 0.22 0.22 0.22 0.22 0.22 0.22 0.22 0.22 0.22 0.22 0.24 0.24 0.24 0.26 0.26 0.26 0.26 0.28 0.30 0.30 0.32 0.32 0.32 0.32 0.34 0.34 0.36 0.36 0.38 0.38
0.30 0.30 0.32 0.32 0.34 0.36 0.36 0.36 0.36 0.34 0.34 0.30 0.28 0.28 0.28 0.26 0.24 0.20 0.20 0.20 0.20 0.20 0.18 0.18 0.18 0.16 0.16 0.16 0.16 0.16 0.16 0.16 0.16 0.18 0.16 0.15 0.15 0.15 0.16 0.16 0.18 0.18 0.18 0.18 0.18 0.18 0.20 0.20 0.22 0.22 0.22 0.22 0.22 0.22 0.22 0.22 0.22 0.22 0.22 0.22 0.20 0.20 0.20 0.22 0.22 0.24 0.24 0.24 0.26 0.26 0.26 0.28 0.28 0.28 0.30 0.30 0.32 0.32 0.32 0.32 0.32 0.34 0.34 0.36 0.36 0.38
0.28 0.30 0.32 0.32 0.32 0.32 0.32 0.32 0.30 0.30 0.28 0.26 0.26 0.26 0.26 0.24 0.24 0.22 0.22 0.22 0.20 0.20 0.18 0.18 0.18 0.18 0.18 0.16 0.16 0.16 0.15 0.16 0.16 0.18 0.18 0.16 0.15 0.15 0.16 0.16 0.16 0.18 0.18 0.18 0.18 0.18 0.18 0.20 0.20 0.22 0.22 0.22 0.22 0.22 0.22 0.22 0.22 0.22 0.22 0.20 0.20 0.20 0.22 0.22 0.22 0.24 0.24 0.26 0.26 0.26 0.28 0.28 0.28 0.28 0.30 0.32 0.32 0.32 0.32 0.32 0.34 0.34 0.34 0.36 0.36 0.38
0.28 0.28 0.30 0.30 0.30 0.30 0.30 0.28 0.28 0.28 0.26 0.24 0.24 0.24 0.24 0.24 0.22 0.22 0.22 0.22 0.20 0.20 0.20 0.18 0.18 0.18 0.18 0.16 0.16 0.15 0.15 0.16 0.16 0.18 0.18 0.16 0.15 0.15 0.15 0.16 0.16 0.18 0.18 0.20 0.18 0.16 0.16 0.18 0.20 0.20 0.22 0.22 0.22 0.22 0.22 0.22 0.22 0.22 0.22 0.20 0.20 0.20 0.22 0.22 0.22 0.24 0.24 0.24 0.26 0.26 0.28 0.28 0.28 0.28 0.30 0.30 0.32 0.32 0.34 0.34 0.34 0.36 0.34 0.34 0.34 0.36
0.28 0.28 0.28 0.28 0.28 0.28 0.28 0.28 0.26 0.26 0.24 0.24 0.24 0.24 0.24 0.22 0.22 0.22 0.22 0.22 0.22 0.20 0.20 0.20 0.20 0.18 0.18 0.18 0.16 0.16 0.16 0.16 0.18 0.20 0.18 0.16 0.16 0.16 0.16 0.16 0.16 0.18 0.18 0.20 0.18 0.18 0.16 0.16 0.18 0.20 0.22 0.22 0.22 0.22 0.22 0.22 0.22 0.22 0.22 0.20 0.20 0.20 0.20 0.22 0.22 0.22 0.24 0.24 0.26 0.26 0.26 0.26 0.26 0.28 0.28 0.30 0.30 0.32 0.34 0.34 0.36 0.36 0.36 0.34 0.34 0.36
0.30 0.28 0.28 0.28 0.28 0.28 0.26 0.26 0.26 0.24 0.24 0.22 0.22 0.22 0.22 0.22 0.22 0.22 0.22 0.22 0.22 0.22 0.22 0.20 0.20 0.20 0.18 0.18 0.18 0.18 0.18 0.18 0.18 0.20 0.20 0.18 0.16 0.16 0.16 0.16 0.16 0.18 0.18 0.20 0.20 0.18 0.18 0.18 0.18 0.20 0.20 0.20 0.22 0.22 0.22 0.22 0.22 0.22 0.22 0.20 0.20 0.20 0.20 0.22 0.22 0.22 0.24 0.24 0.24 0.24 0.24 0.24 0.24 0.26 0.26 0.26 0.28 0.30 0.32 0.34 0.36 0.36 0.36 0.36 0.36 0.36
0.28 0.28 0.28 0.28 0.26 0.26 0.26 0.24 0.24 0.24 0.22 0.22 0.22 0.22 0.22 0.22 0.22 0.22 0.22 0.22 0.24 0.22 0.22 0.22 0.20 0.20 0.20 0.18 0.18 0.18 0.18 0.18 0.20 0.20 0.22 0.20 0.18 0.16 0.16 0.16 0.16 0.16 0.18 0.18 0.18 0.18 0.18 0.20 0.20 0.20 0.20 0.20 0.20 0.22 0.22 0.22 0.22 0.22 0.22 0.20 0.20 0.20 0.20 0.22 0.22 0.22 0.22 0.22 0.24 0.24 0.24 0.24 0.24 0.24 0.24 0.26 0.28 0.28 0.30 0.32 0.34 0.36 0.38 0.38 0.38 0.38
0.28 0.28 0.28 0.28 0.26 0.24 0.24 0.24 0.24 0.22 0.22 0.22 0.22 0.22 0.22 0.22 0.22 0.22 0.22 0.24 0.24 0.24 0.24 0.22 0.22 0.20 0.20 0.20 0.18 0.18 0.18 0.20 0.20 0.22 0.22 0.20 0.18 0.16 0.16 0.16 0.16 0.18 0.18 0.18 0.18 0.18 0.18 0.20 0.20 0.20 0.20 0.20 0.20 0.20 0.22 0.22 0.22 0.22 0.22 0.22 0.20 0.20 0.20 0.22 0.22 0.22 0.22 0.22 0.22 0.22 0.22 0.24 0.24 0.24 0.26 0.28 0.28 0.28 0.30 0.30 0.32 0.34 0.36 0.38 0.40 0.40
0.28 0.28 0.26 0.26 0.26 0.24 0.24 0.22 0.22 0.22 0.22 0.22 0.22 0.22 0.22 0.22 0.22 0.22 0.22 0.22 0.22 0.22 0.24 0.24 0.24 0.24 0.24 0.22 0.22 0.20 0.20 0.22 0.22 0.22 0.22 0.20 0.18 0.18 0.16 0.18 0.18 0.18 0.18 0.18 0.18 0.18 0.18 0.18 0.20 0.20 0.20 0.20 0.20 0.20 0.20 0.22 0.22 0.22 0.22 0.22 0.22 0.22 0.22 0.22 0.22 0.22 0.22 0.22 0.22 0.22 0.22 0.24 0.24 0.24 0.26 0.26 0.28 0.30 0.30 0.30 0.32 0.34 0.34 0.38 0.40 0.42
0.28 0.26 0.26 0.26 0.24 0.24 0.22 0.22 0.22 0.22 0.20 0.20 0.20 0.22 0.22 0.22 0.22 0.22 0.22 0.22 0.22 0.22 0.24 0.24 0.24 0.24 0.24 0.24 0.24 0.22 0.22 0.22 0.22 0.22 0.22 0.22 0.20 0.20 0.18 0.18 0.18 0.18 0.18 0.18 0.18 0.18 0.18 0.18 0.18 0.18 0.20 0.20 0.20 0.20 0.20 0.20 0.20 0.20 0.20 0.22 0.22 0.22 0.22 0.22 0.22 0.22 0.22 0.22 0.22 0.22 0.22 0.24 0.24 0.24 0.26 0.26 0.28 0.28 0.28 0.30 0.32 0.32 0.34 0.38 0.38 0.40
0.26 0.26 0.26 0.24 0.24 0.22 0.22 0.20 0.20 0.20 0.20 0.20 0.20 0.20 0.22 0.22 0.22 0.22 0.22 0.22 0.22 0.22 0.24 0.24 0.24 0.24 0.24 0.24 0.24 0.24 0.24 0.24 0.22 0.22 0.22 0.22 0.22 0.20 0.18 0.18 0.18 0.18 0.18 0.18 0.18 0.18 0.18 0.18 0.18 0.18 0.18 0.20 0.20 0.20 0.20 0.20 0.20 0.20 0.20 0.20 0.22 0.22 0.22 0.22 0.22 0.22 0.22 0.22 0.24 0.24 0.24 0.24 0.24 0.24 0.24 0.24 0.26 0.26 0.28 0.28 0.30 0.32 0.32 0.34 0.36 0.38
0.26 0.26 0.24 0.24 0.24 0.22 0.22 0.20 0.20 0.20 0.22 0.22 0.22 0.22 0.22 0.22 0.22 0.22 0.22 0.22 0.22 0.24 0.24 0.24 0.24 0.24 0.24 0.24 0.24 0.24 0.24 0.24 0.24 0.22 0.22 0.22 0.22 0.20 0.18 0.18 0.18 0.18 0.18 0.20 0.18 0.18 0.18 0.18 0.18 0.18 0.18 0.18 0.20 0.20 0.20 0.20 0.20 0.20 0.20 0.20 0.20 0.22 0.22 0.22 0.22 0.22 0.22 0.22 0.22 0.22 0.24 0.24 0.24 0.24 0.24 0.26 0.26 0.26 0.28 0.28 0.30 0.32 0.32 0.34 0.36 0.38
0.26 0.26 0.24 0.24 0.24 0.22 0.22 0.22 0.20 0.20 0.22 0.22 0.22 0.22 0.22 0.22 0.22 0.22 0.22 0.22 0.22 0.24 0.24 0.24 0.24 0.24 0.24 0.24 0.24 0.24 0.24 0.24 0.24 0.22 0.22 0.22 0.22 0.20 0.20 0.20 0.18 0.18 0.18 0.18 0.18 0.18 0.18 0.18 0.18 0.18 0.20 0.20 0.20 0.20 0.20 0.20 0.22 0.20 0.20 0.20 0.20 0.20 0.22 0.22 0.22 0.22 0.22 0.22 0.22 0.22 0.24 0.24 0.24 0.24 0.24 0.26 0.26 0.28 0.28 0.28 0.30 0.30 0.32 0.32 0.34 0.34
0.26 0.24 0.24 0.24 0.22 0.22 0.22 0.22 0.22 0.22 0.22 0.22 0.22 0.22 0.22 0.22 0.20 0.22 0.22 0.22 0.22 0.22 0.22 0.22 0.22 0.22 0.22 0.22 0.24 0.24 0.24 0.22 0.22 0.22 0.22 0.22 0.22 0.20 0.20 0.20 0.18 0.18 0.18 0.18 0.18 0.18 0.18 0.18 0.18 0.18 0.20 0.20 0.20 0.20 0.20 0.20 0.22 0.22 0.20 0.20 0.20 0.20 0.22 0.22 0.22 0.22 0.22 0.22 0.22 0.22 0.22 0.24 0.24 0.24 0.24 0.26 0.26 0.28 0.28 0.30 0.30 0.32 0.34 0.34 0.34 0.34
0.24 0.24 0.24 0.22 0.22 0.22 0.22 0.22 0.22 0.22 0.22 0.22 0.22 0.22 0.20 0.20 0.20 0.20 0.20 0.22 0.22 0.20 0.22 0.22 0.22 0.22 0.20 0.22 0.22 0.22 0.22 0.22 0.22 0.22 0.22 0.22 0.22 0.20 0.20 0.20 0.20 0.18 0.18 0.18 0.18 0.18 0.18 0.18 0.18 0.18 0.18 0.20 0.20 0.20 0.20 0.20 0.22 0.22 0.22 0.20 0.20 0.20 0.22 0.22 0.22 0.22 0.22 0.22 0.22 0.22 0.22 0.24 0.24 0.24 0.24 0.24 0.26 0.28 0.30 0.30 0.32 0.32 0.34 0.34 0.34 0.36
0.24 0.24 0.24 0.24 0.22 0.22 0.22 0.22 0.22 0.22 0.22 0.22 0.20 0.20 0.20 0.22 0.22 0.22 0.20 0.20 0.20 0.20 0.20 0.20 0.20 0.20 0.20 0.20 0.20 0.20 0.20 0.22 0.22 0.22 0.22 0.22 0.22 0.20 0.20 0.20 0.20 0.20 0.20 0.18 0.18 0.18 0.18 0.18 0.18 0.18 0.20 0.20 0.20 0.20 0.20 0.20 0.20 0.22 0.22 0.22 0.20 0.20 0.20 0.20 0.22 0.22 0.22 0.22 0.22 0.22 0.24 0.24 0.24 0.24 0.24 0.24 0.24 0.26 0.26 0.28 0.30 0.32 0.32 0.34 0.34 0.36
0.24 0.24 0.24 0.24 0.24 0.22 0.22 0.22 0.22 0.22 0.22 0.20 0.20 0.20 0.20 0.22 0.22 0.22 0.22 0.20 0.20 0.20 0.20 0.20 0.20 0.20 0.20 0.18 0.20 0.20 0.20 0.20 0.22 0.22 0.22 0.22 0.22 0.22 0.20 0.20 0.20 0.20 0.20 0.18 0.18 0.16 0.16 0.18 0.18 0.18 0.20 0.20 0.20 0.20 0.20 0.20 0.20 0.22 0.22 0.22 0.20 0.20 0.20 0.20 0.20 0.22 0.22 0.22 0.22 0.22 0.24 0.24 0.24 0.24 0.24 0.24 0.24 0.26 0.26 0.28 0.28 0.30 0.32 0.34 0.36 0.36
0.24 0.24 0.24 0.22 0.22 0.22 0.22 0.22 0.22 0.20 0.20 0.20 0.20 0.20 0.22 0.22 0.22 0.22 0.20 0.20 0.20 0.20 0.20 0.20 0.20 0.20 0.18 0.18 0.18 0.20 0.20 0.20 0.20 0.20 0.22 0.22 0.22 0.22 0.22 0.20 0.20 0.20 0.20 0.18 0.18 0.16 0.16 0.16 0.16 0.18 0.18 0.18 0.20 0.20 0.20 0.20 0.20 0.20 0.20 0.22 0.22 0.22 0.22 0.22 0.22 0.22 0.22 0.22 0.22 0.22 0.24 0.24 0.24 0.24 0.24 0.24 0.24 0.26 0.26 0.26 0.26 0.28 0.30 0.30 0.32 0.34
0.24 0.24 0.22 0.22 0.22 0.22 0.20 0.20 0.20 0.20 0.20 0.20 0.20 0.20 0.22 0.22 0.22 0.22 0.20 0.20 0.20 0.20 0.20 0.20 0.20 0.18 0.18 0.18 0.18 0.18 0.18 0.18 0.20 0.20 0.20 0.20 0.20 0.20 0.22 0.20 0.20 0.20 0.20 0.18 0.18 0.18 0.18 0.16 0.16 0.16 0.16 0.18 0.18 0.20 0.20 0.20 0.20 0.20 0.20 0.22 0.22 0.22 0.22 0.24 0.24 0.22 0.22 0.22 0.22 0.22 0.22 0.24 0.24 0.22 0.22 0.22 0.22 0.24 0.26 0.26 0.28 0.28 0.30 0.30 0.32 0.32
0.22 0.22 0.22 0.20 0.20 0.20 0.20 0.20 0.20 0.20 0.20 0.20 0.20 0.20 0.22 0.22 0.22 0.22 0.22 0.22 0.20 0.20 0.20 0.20 0.20 0.18 0.18 0.18 0.18 0.18 0.18 0.18 0.18 0.18 0.18 0.20 0.20 0.20 0.20 0.20 0.20 0.20 0.20 0.18 0.18 0.18 0.18 0.16 0.16 0.16 0.16 0.16 0.18 0.18 0.20 0.20 0.22 0.20 0.20 0.20 0.20 0.22 0.22 0.22 0.22 0.24 0.24 0.24 0.22 0.24 0.24 0.24 0.22 0.22 0.22 0.22 0.22 0.24 0.24 0.26 0.28 0.28 0.30 0.30 0.30 0.32
0.22 0.22 0.20 0.20 0.20 0.20 0.20 0.20 0.20 0.20 0.20 0.20 0.20 0.20 0.20 0.22 0.22 0.22 0.20 0.20 0.20 0.20 0.20 0.20 0.20 0.18 0.18 0.18 0.18 0.18 0.18 0.18 0.18 0.18 0.18 0.20 0.20 0.20 0.20 0.20 0.20 0.20 0.20 0.18 0.18 0.18 0.18 0.16 0.16 0.16 0.16 0.16 0.16 0.18 0.18 0.20 0.22 0.22 0.22 0.22 0.20 0.20 0.22 0.22 0.24 0.24 0.24 0.24 0.24 0.24 0.24 0.22 0.22 0.22 0.22 0.20 0.22 0.22 0.22 0.24 0.26 0.28 0.30 0.30 0.30 0.32
0.22 0.20 0.20 0.20 0.20 0.20 0.20 0.20 0.20 0.20 0.20 0.20 0.20 0.20 0.20 0.22 0.22 0.22 0.20 0.20 0.20 0.20 0.20 0.20 0.18 0.18 0.18 0.18 0.18 0.20 0.20 0.20 0.20 0.20 0.20 0.20 0.20 0.20 0.20 0.20 0.18 0.18 0.18 0.18 0.18 0.16 0.18 0.18 0.16 0.16 0.16 0.16 0.18 0.18 0.20 0.20 0.22 0.22 0.22 0.22 0.22 0.22 0.22 0.22 0.24 0.24 0.24 0.24 0.24 0.24 0.24 0.24 0.22 0.22 0.22 0.20 0.20 0.20 0.22 0.24 0.24 0.26 0.28 0.30 0.30 0.32
0.20 0.20 0.20 0.20 0.20 0.20 0.20 0.20 0.20 0.20 0.20 0.20 0.20 0.20 0.20 0.20 0.22 0.22 0.20 0.20 0.20 0.20 0.20 0.20 0.18 0.18 0.18 0.18 0.18 0.18 0.20 0.20 0.20 0.20 0.20 0.20 0.20 0.20 0.20 0.18 0.18 0.18 0.16 0.16 0.16 0.16 0.16 0.16 0.16 0.16 0.16 0.16 0.18 0.20 0.20 0.22 0.22 0.22 0.22 0.22 0.22 0.22 0.22 0.22 0.22 0.24 0.24 0.24 0.24 0.24 0.24 0.24 0.24 0.24 0.22 0.22 0.20 0.20 0.22 0.22 0.22 0.24 0.26 0.28 0.30 0.32
0.20 0.20 0.20 0.20 0.20 0.20 0.20 0.20 0.20 0.20 0.20 0.20 0.20 0.20 0.20 0.20 0.20 0.20 0.22 0.20 0.20 0.20 0.20 0.20 0.20 0.20 0.18 0.18 0.18 0.18 0.20 0.20 0.20 0.20 0.20 0.20 0.20 0.20 0.18 0.18 0.18 0.16 0.16 0.16 0.15 0.15 0.15 0.15 0.15 0.15 0.15 0.16 0.18 0.20 0.20 0.20 0.20 0.20 0.20 0.20 0.22 0.22 0.22 0.22 0.22 0.24 0.24 0.24 0.24 0.24 0.24 0.24 0.24 0.22 0.22 0.22 0.20 0.20 0.20 0.20 0.22 0.24 0.28 0.28 0.30 0.32
Wind_Speed
40 40 39 39 39 39 38 38 37 38 38 38 39 40 41 42 43 44 45 45 46 47 48 48 49 50 51 51 52 53 53 53 54 54 54 55 55 55 55 54 54 54 54 54 54 54 54 54 54 54 54 53 53 53 53 53 53 53 53 53 53 53 52 52 52 52 52 52 52 52 51 51 51 52 52 52 52 52 51 51 50 50 50 51 51 51
39 39 39 38 38 38 37 37 37 37 38 39 39 40 41 42 43 44 45 45 46 47 47 48 49 50 50 51 52 52 53 53 53 54 54 54 54 54 53 53 53 53 53 53 53 53 53 53 53 53 53 53 53 53 53 53 52 52 53 53 53 53 52 52 51 51 51 51 51 51 51 51 51 51 51 51 51 51 50 50 49 49 50 50 50 50
39 39 38 38 37 37 37 37 37 37 38 39 39 40 41 42 43 43 44 45 46 46 47 48 49 49 50 51 51 52 52 53 53 53 53 53 53 53 53 52 52 52 53 53 52 52 52 52 52 52 52 52 52 52 52 52 52 52 52 52 52 52 51 51 50 50 50 50 51 51 51 51 51 51 51 50 50 49 49 49 49 49 49 50 50 49
38 38 38 37 36 36 36 36 37 37 38 39 40 41 41 42 43 43 44 44 45 46 47 48 49 49 50 51 51 51 52 52 53 53 53 52 52 52 52 52 52 52 52 52 52 51 51 51 51 51 51 51 51 51 51 51 51 51 51 51 51 51 50 50 50 50 50 50 50 50 50 51 51 51 51 50 50 49 49 49 49 49 49 49 49 48
37 37 37 36 36 36 36 36 36 37 38 39 40 40 41 42 42 43 44 44 45 46 47 48 48 49 49 50 51 51 52 52 52 52 52 52 52 52 52 52 52 52 51 51 51 50 50 50 50 50 50 50 50 50 50 50 50 50 50 49 49 49 49 49 48 48 48 49 49 49 49 49 50 50 50 50 49 49 49 49 49 49 49 49 48 47
37 36 36 35 35 35 35 36 36 37 38 39 40 40 41 41 42 43 43 44 44 45 46 47 48 49 49 50 50 51 51 52 52 52 52 52 52 52 52 52 51 51 50 50 49 49 49 49 49 49 49 49 49 49 49 49 49 49 49 48 48 47 47 47 47 46 47 47 47 47 47 48 48 48 48 48 48 48 48 49 49 49 49 48 47 47
36 36 35 35 35 35 36 36 36 37 38 39 40 40 41 41 42 42 43 43 44 45 46 47 48 49 49 49 50 50 51 51 52 52 52 51 51 51 51 50 50 49 49 48 48 48 49 49 49 49 49 49 49 49 48 48 48 48 48 47 46 46 45 45 45 45 45 46 46 46 46 46 47 46 46 46 45 45 46 47 48 48 48 47 46 47
36 35 35 35 35 35 36 36 36 37 38 39 40 40 41 41 41 42 43 44 44 45 46 47 48 48 48 48 49 49 50 50 51 51 51 50 50 50 49 49 49 48 48 48 48 48 48 48 49 49 49 48 48 48 47 47 46 46 46 45 44 44 43 44 44 44 44 44 44 44 45 45 45 44 44 43 43 43 43 44 45 45 45 45 45 46
35 35 35 35 35 35 36 36 37 37 38 39 40 40 41 41 42 42 43 44 44 45 46 47 47 47 47 47 48 49 49 50 50 50 50 50 50 49 48 48 48 48 48 48 48 48 48 48 48 48 48 47 46 46 45 45 44 44 44 43 43 43 43 43 43 43 43 43 43 42 43 43 43 43 42 41 41 41 41 41 41 41 41 41 43 44
35 35 35 35 35 35 36 37 37 38 38 39 39 40 40 41 42 43 43 44 45 45 46 46 46 46 47 47 48 48 49 50 51 51 51 50 50 49 48 47 47 47 47 47 47 47 47 47 46 46 46 45 44 44 43 43 42 42 42 42 42 41 41 41 41 41 41 41 41 41 41 41 41 41 40 39 39 39 38 38 38 38 38 39 41 42
35 35 35 35 35 35 36 36 37 38 38 38 39 39 39 40 41 43 44 45 45 45 45 45 45 46 47 48 48 48 49 49 50 50 50 49 48 48 47 46 46 46 46 46 46 46 45 45 45 44 44 43 42 42 41 41 40 40 40 40 40 40 40 40 40 40 40 40 40 40 40 40 40 39 38 37 36 36 36 36 36 37 38 39 40 42
34 34 35 35 35 35 36 36 37 37 37 37 37 38 39 40 41 42 44 45 45 45 45 45 45 46 47 47 48 48 49 49 49 48 48 47 46 45 44 44 44 44 44 44 44 44 43 43 43 42 42 41 40 40 39 39 39 39 39 39 39 39 39 39 39 39 39 39 39 39 39 38 38 36 35 35 34 34 35 35 36 37 37 38 40 41
34 34 34 35 35 35 36 36 36 36 36 36 37 38 39 40 42 43 44 44 45 45 45 46 46 47 47 47 47 47 47 48 48 47 46 44 43 43 42 42 42 42 42 41 41 41 41 41 41 41 40 39 39 38 38 38 38 37 37 38 38 38 38 38 38 38 38 38 38 38 38 37 36 35 34 33 33 33 34 34 35 35 36 37 39 41
34 34 34 35 35 35 35 35 35 35 36 36 37 38 40 41 42 43 43 44 44 44 45 46 47 47 47 46 45 45 46 46 46 45 44 43 42 41 41 41 41 41 41 40 40 39 40 39 39 38 38 38 37 37 37 37 37 37 37 37 37 37 37 37 37 37 38 38 37 37 36 35 34 33 33 32 32 32 33 33 33 34 35 36 38 40
34 34 34 34 35 35 35 35 35 35 36 37 38 39 41 42 42 42 42 43 44 45 46 47 47 47 45 44 43 44 44 45 45 44 43 42 41 41 41 41 41 41 40 39 38 38 38 37 37 36 36 36 36 36 36 36 36 36 36 36 36 36 36 36 36 37 37 37 36 36 35 34 33 32 32 32 32 32 32 32 32 32 33 35 37 39
33 34 34 34 35 35 34 34 34 35 36 38 39 40 41 41 41 41 41 42 44 45 46 46 46 45 44 43 42 41 42 43 43 43 43 42 41 40 40 40 40 40 39 38 37 37 36 36 35 35 35 35 35 35 35 35 35 35 35 35 35 35 35 36 36 36 36 36 35 34 33 33 32 32 32 32 32 31 31 31 31 31 32 33 35 37
33 34 34 34 35 34 34 34 35 36 37 38 39 40 40 40 40 40 41 42 43 44 44 44 43 42 43 43 42 41 41 42 43 43 42 42 40 39 38 38 38 38 38 37 36 35 35 34 34 34 34 34 34 34 34 34 34 35 35 35 35 35 35 35 35 35 35 35 34 33 32 32 32 32 32 32 32 31 31 30 31 31 31 33 34 35
34 34 34 34 34 34 34 34 35 36 37 38 39 39 39 39 39 40 41 42 43 43 43 43 42 40 40 41 41 41 41 41 42 43 42 41 40 38 37 37 37 37 37 36 35 34 34 33 33 32 32 33 33 34 34 34 34 34 34 34 34 34 34 34 34 34 34 33 32 32 31 31 31 32 32 32 32 31 31 30 30 31 31 33 34 35
34 34 34 34 34 34 34 35 36 36 37 37 38 38 39 39 40 41 42 42 42 42 42 41 41 40 40 40 41 41 41 41 41 42 41 40 39 37 37 36 36 36 36 35 34 33 33 32 32 33 33 33 33 33 33 33 33 33 33 33 33 33 33 33 33 33 33 32 31 31 31 31 31 32 32 32 32 31 31 30 30 31 32 33 34 35
34 34 33 33 34 35 35 36 36 37 37 37 38 38 39 39 40 41 41 41 41 40 40 40 39 40 40 40 41 41 41 41 41 40 39 38 38 37 36 36 35 35 35 34 33 32 32 32 32 32 32 32 32 32 32 32 32 33 33 33 33 33 33 33 32 32 31 31 30 30 30 30 31 31 32 32 32 31 30 30 30 31 32 33 35 35
34 33 33 33 34 35 36 36 37 37 37 37 38 38 39 39 40 40 39 39 39 39 39 39 39 39 39 40 40 40 40 40 39 39 38 37 36 36 35 35 35 35 34 33 32 32 31 31 31 31 31 31 31 31 32 32 32 32 32 32 32 32 32 32 32 31 30 29 29 29 29 30 30 31 31 31 31 31 30 30 31 31 32 33 35 35
34 34 35 35 35 36 37 38 38 38 37 37 37 38 38 38 38 38 38 38 38 38 38 38 39 39 39 39 39 39 39 38 37 37 36 36 36 36 35 34 34 34 33 32 31 31 31 30 30 30 30 31 31 31 31 31 31 31 32 32 32 32 31 31 30 29 28 28 28 28 29 30 30 30 30 30 30 30 30 30 31 31 32 33 34 34
35 36 36 37 37 38 38 38 37 37 36 36 36 37 37 37 37 37 37 37 37 38 38 38 38 38 38 38 38 37 37 36 36 35 35 34 34 35 35 34 33 33 32 31 31 30 30 30 30 29 30 30 30 30 30 30 30 31 31 31 31 31 30 30 29 28 27 26 27 28 29 29 30 29 29 29 29 29 30 30 30 31 31 31 32 32
36 37 37 37 37 37 37 36 36 35 35 35 36 36 36 36 36 36 36 37 37 38 38 38 38 37 37 36 36 36 35 35 34 34 33 33 34 34 34 33 32 32 31 30 30 30 30 30 29 29 29 29 29 29 29 29 29 30 30 30 30 30 29 29 28 27 26 26 26 27 28 29 29 29 28 28 29 29 29 29 30 30 30 30 29 29
36 37 37 37 37 36 36 35 35 35 35 35 35 35 35 35 36 36 36 37 37 37 37 36 36 35 35 35 35 34 34 34 33 33 33 33 33 34 33 32 32 31 31 30 30 30 30 30 29 29 28 28 28 28 28 29 29 29 29 29 29 28 28 27 26 25 25 25 26 27 28 28 28 27 27 28 28 28 28 29 29 29 29 28 27 26
36 36 36 36 36 36 36 36 35 35 34 34 34 34 34 35 35 36 36 36 35 35 35 35 34 34 34 33 33 33 33 33 32 32 32 32 32 33 32 31 31 31 31 30 30 30 30 30 29 29 28 28 28 28 28 28 28 28 28 28 27 27 27 26 25 24 23 24 25 26 27 27 27 26 27 27 27 27 28 29 29 29 28 26 24 23
35 35 36 36 36 36 36 36 35 34 34 34 34 34 35 35 35 35 35 34 34 34 33 33 32 33 33 32 32 32 32 32 32 31 31 32 32 31 31 31 31 31 31 31 30 30 30 30 30 29 28 28 27 27 27 27 27 27 27 27 27 26 26 25 23 23 22 23 24 26 26 26 26 26 26 26 27 27 27 29 29 28 26 24 23 21
35 35 35 36 36 36 36 35 34 33 33 34 34 34 34 34 34 34 34 33 33 32 32 31 31 31 31 31 31 31 32 31 31 31 30 30 30 30 30 31 31 31 31 31 31 30 30 30 29 29 29 28 27 27 27 26 26 26 26 27 27 26 25 23 22 21 21 22 24 25 25 25 25 25 26 26 27 27 28 28 28 27 25 23 21 20
34 35 35 35 35 35 34 33 32 32 33 33 34 33 33 32 32 32 32 32 31 31 31 30 30 30 30 31 31 31 30 30 30 29 29 29 29 29 30 31 31 31 31 31 31 30 29 28 28 28 28 28 27 26 26 26 26 26 26 26 26 25 24 22 21 20 21 22 23 24 24 24 24 24 25 26 27 27 28 28 27 26 24 22 20 19
33 33 33 33 33 32 32 31 31 32 33 33 33 32 32 31 31 31 31 31 30 30 30 30 30 30 30 30 29 29 28 28 28 28 29 29 29 29 30 30 31 31 31 31 30 29 28 27 27 27 28 28 27 27 26 26 26 26 26 25 24 23 21 20 19 19 20 21 22 23 23 23 23 24 24 25 25 26 27 27 26 25 23 21 20 19
31 31 31 31 31 30 30 30 31 31 32 32 31 31 31 30 30 30 30 29 29 29 29 29 29 29 29 28 27 26 26 27 28 28 29 29 29 29 30 30 31 31 31 30 29 28 28 27 27 27 27 28 28 27 27 26 26 25 24 23 22 21 20 19 18 19 19 20 21 22 23 23 23 23 23 23 24 24 25 25 25 23 22 21 20 19
30 30 30 30 30 30 30 30 30 30 30 30 30 30 30 30 29 29 28 28 28 28 28 28 28 28 28 27 26 26 26 28 29 29 29 29 29 29 30 30 30 31 30 30 30 29 28 28 28 28 28 28 28 27 27 26 25 25 24 22 21 19 18 18 17 18 18 20 21 22 22 22 22 22 22 22 22 23 24 24 23 22 21 20 20 19
30 29 29 29 29 29 29 29 29 29 29 29 29 29 29 29 28 28 28 27 27 27 27 27 27 27 27 27 27 26 27 28 29 29 29 29 29 29 30 30 31 31 31 31 30 30 29 29 29 30 29 28 27 27 26 26 25 24 23 21 19 18 17 16 16 17 18 19 20 21 22 22 22 22 22 22 22 22 22 22 22 21 20 20 19 19
29 29 29 29 28 28 28 29 29 29 29 29 29 29 28 28 27 27 27 27 27 27 27 26 27 27 27 27 27 27 27 28 28 29 29 29 29 29 30 30 31 31 32 31 31 31 30 30 30 30 29 29 28 27 26 25 25 24 22 20 18 17 16 16 16 17 18 19 20 21 21 21 21 21 21 22 21 21 21 21 21 20 20 20 19 19
29 29 29 28 28 28 28 28 28 29 29 29 28 28 27 27 27 27 27 26 26 26 26 26 26 26 26 26 26 27 27 28 28 28 28 29 29 29 30 30 31 31 32 32 32 32 31 31 31 31 30 29 28 27 26 25 24 23 22 20 17 16 15 15 16 17 18 19 20 20 21 21 21 21 21 21 21 21 21 21 20 20 20 20 20 20
29 29 28 28 28 28 28 28 28 28 28 28 28 27 27 27 26 26 26 26 26 26 25 25 26 26 26 26 26 27 27 28 28 28 28 28 29 29 30 30 31 31 32 32 33 32 32 32 32 32 31 29 28 27 26 25 24 23 22 19 17 15 15 15 16 17 18 19 19 20 21 21 21 21 21 22 22 21 21 20 21 21 21 22 22 22
29 28 28 28 28 28 28 28 28 28 28 28 27 27 27 26 26 26 26 25 25 25 25 25 26 26 26 26 26 27 27 28 28 28 28 28 28 29 29 30 30 31 31 32 32 33 33 33 32 32 30 29 27 27 26 25 24 23 22 19 17 15 15 15 16 17 18 19 20 20 21 21 21 21 22 22 22 21 20 20 20 21 22 22 22 22
28 28 27 27 27 27 28 27 27 27 27 27 27 27 26 26 26 26 25 25 25 25 25 25 26 26 26 27 27 27 27 28 28 28 28 28 28 28 29 29 30 30 30 31 32 33 33 33 32 31 30 29 28 28 27 26 25 23 22 19 16 15 14 15 16 18 19 19 20 20 21 21 21 21 22 22 22 21 20 20 20 20 21 22 22 22
27 27 27 27 27 27 27 27 27 27 27 27 27 26 26 26 26 26 25 25 25 25 25 25 25 26 26 27 27 28 28 28 28 28 28 27 27 28 28 29 29 30 30 30 31 32 32 32 32 32 31 30 29 28 27 26 25 24 22 19 16 14 14 15 16 18 19 20 21 21 21 21 22 22 22 22 22 21 20 19 19 19 20 20 20 21
27 27 27 27 27 27 27 27 27 27 27 27 26 26 26 26 26 26 26 25 25 25 25 25 25 26 26 26 27 27 28 28 28 28 27 27 27 27 28 28 29 30 30 30 31 31 32 32 33 33 32 31 30 29 28 26 25 23 22 19 16 14 14 15 17 19 20 21 21 21 21 22 22 23 23 23 22 21 20 19 18 18 18 19 19 19
27 27 27 27 27 28 27 27 27 27 26 26 26 26 26 26 26 26 26 26 26 25 25 25 26 26 26 26 27 27 27 28 28 28 28 28 28 28 28 28 29 30 30 30 31 31 31 32 33 33 33 32 31 29 28 26 25 24 22 18 16 14 15 16 18 20 21 21 22 22 22 22 23 24 24 24 23 22 21 20 18 18 18 19 19 19
28 27 27 27 27 27 27 27 27 26 26 26 26 26 26 26 26 26 26 26 26 26 26 26 26 26 27 27 27 27 27 27 28 28 28 28 28 28 28 29 29 30 30 31 31 31 31 32 32 33 33 32 31 29 28 26 25 23 21 19 16 15 15 16 18 20 21 22 23 23 23 23 24 24 25 24 24 23 21 20 19 18 18 18 19 20
28 27 28 28 28 27 27 27 26 26 26 26 26 26 26 26 26 26 26 26 26 26 26 26 26 27 27 28 28 27 27 27 27 28 28 28 29 29 29 29 30 30 30 31 31 31 32 32 32 32 32 32 31 30 28 27 25 23 21 18 16 14 14 16 18 20 21 22 23 24 24 24 24 25 25 25 24 23 22 21 19 19 18 18 19 20
28 28 28 28 27 27 27 26 26 26 26 25 25 25 25 25 25 26 26 26 26 26 27 27 27 27 27 28 28 28 28 28 28 28 28 29 29 29 29 30 30 30 30 30 31 31 32 32 32 32 32 32 31 29 28 27 25 23 21 18 16 14 14 16 18 20 21 22 23 24 24 24 24 25 25 25 24 23 22 21 20 19 19 19 19 20
27 27 27 27 27 27 26 26 26 26 25 25 25 25 25 25 25 26 26 26 26 27 27 27 27 27 27 28 28 28 28 28 28 28 28 29 30 30 30 30 30 31 31 31 31 31 32 32 33 33 32 31 30 29 28 26 25 23 21 19 16 15 15 17 18 20 21 22 23 24 24 24 24 25 26 26 25 24 23 21 20 20 19 19 19 20
27 27 27 27 27 27 26 26 26 25 25 25 25 25 25 25 25 26 26 26 26 27 27 27 27 27 27 28 28 29 29 29 29 29 29 29 29 30 30 30 31 31 31 31 31 32 32 32 33 33 32 31 30 28 27 26 25 23 21 19 17 15 15 16 18 19 21 22 23 24 24 24 25 26 26 26 25 24 23 22 21 20 19 19 20 21
27 27 27 27 27 27 27 26 26 25 25 25 25 25 25 25 25 25 26 26 26 26 27 27 27 27 28 28 29 29 29 30 30 30 30 30 30 30 30 30 31 31 31 32 32 32 32 32 32 32 32 31 29 28 27 25 24 23 21 20 17 15 15 16 17 19 21 22 23 24 24 24 25 26 27 27 26 25 24 22 21 20 20 20 20 21
27 27 27 27 27 27 27 26 26 25 25 25 25 25 25 25 25 25 26 26 26 26 27 27 27 28 28 29 29 29 29 30 30 30 31 31 31 31 31 31 31 31 32 32 32 32 32 31 31 30 30 29 28 27 26 25 23 22 21 19 17 15 15 16 17 19 20 22 23 24 24 25 26 26 27 27 26 25 24 23 22 21 20 20 20 21
27 27 27 27 27 27 26 26 25 25 25 25 25 25 25 25 25 25 25 26 26 26 26 27 27 28 28 29 29 29 30 30 30 30 30 31 31 31 31 31 31 32 32 32 32 31 31 30 30 29 28 27 26 26 25 24 23 22 20 19 17 15 15 16 18 19 20 22 23 24 25 25 26 27 27 27 27 26 25 23 22 21 21 21 21 22
27 27 27 26 26 26 26 26 25 25 25 25 25 25 25 25 25 25 25 25 26 26 26 27 27 28 28 29 29 29 30 30 30 30 30 30 31 31 31 31 32 32 32 31 31 30 30 29 28 27 26 25 25 24 23 23 22 21 20 18 17 15 15 16 18 19 21 22 23 24 25 26 26 27 27 28 27 27 25 24 23 22 21 21 21 23
26 26 26 26 26 26 26 25 25 25 25 25 25 25 25 25 25 25 25 25 26 26 26 27 27 28 28 29 29 29 30 30 30 30 30 30 30 31 31 31 31 31 31 30 30 29 28 27 27 26 25 25 24 22 21 21 21 21 19 18 16 15 14 16 18 20 21 22 23 25 26 26 27 27 28 28 28 27 26 24 23 22 22 22 22 23
Wind_Direction
292 293 293 293 293 293 293 293 294 294 295 296 297 297 298 298 299 299 299 299 300 300 300 300 301 301 301 301 301 301 300 301 301 300 300 300 300 300 299 298 297 296 295 294 293 293 292 291 291 290 290 289 289 288 287 286 285 284 283 283 282 281 280 279 278 277 276 275 274 273 271 270 269 268 267 266 265 264 261 258 254 250 247 244 243 243
292 292 293 293 292 292 293 293 294 294 295 296 297 298 299 299 299 300 300 300 300 301 301 302 302 302 302 302 302 301 301 302 302 302 301 302 301 301 300 298 297 296 295 294 294 293 292 292 291 291 290 290 289 288 287 286 286 285 284 283 282 281 280 279 278 277 276 275 274 273 272 270 269 268 267 266 265 263 260 256 252 248 245 243 242 241
292 292 292 292 292 292 293 293 294 295 296 297 298 298 299 299 300 300 301 301 302 302 303 303 303 303 303 303 302 302 302 303 303 303 303 302 302 301 300 299 298 297 296 295 294 294 293 293 292 292 291 290 289 289 288 287 286 285 285 284 283 282 280 279 278 277 275 274 273 272 271 270 269 268 267 266 264 262 259 255 250 246 244 242 240 239
291 292 292 292 292 292 292 294 295 296 296 297 298 298 299 299 300 301 302 303 303 304 304 304 304 304 304 304 303 304 304 304 304 304 304 303 302 301 300 299 298 298 297 296 295 295 294 293 293 292 291 291 290 289 288 287 286 286 285 284 283 282 280 279 278 276 275 274 272 271 270 269 268 268 267 265 264 261 257 252 248 244 242 240 238 236
290 291 291 292 292 292 293 294 296 296 297 298 298 299 299 300 301 302 303 304 304 305 305 305 305 305 305 305 305 305 305 305 305 305 304 303 303 302 301 300 299 299 298 297 296 295 295 294 293 293 292 291 290 289 288 288 287 286 285 284 283 282 281 280 278 277 276 274 273 272 271 270 269 267 266 265 263 259 255 250 245 242 240 238 236 234
290 291 291 291 292 293 294 295 296 297 298 298 298 299 300 301 302 303 304 305 305 306 306 306 306 306 306 306 306 306 306 306 306 305 304 304 303 302 302 301 300 300 299 298 297 296 295 295 294 293 292 291 290 290 289 288 288 287 286 284 283 282 281 280 279 278 277 276 274 273 272 270 269 268 266 264 262 258 253 248 243 240 238 235 233 231
290 290 291 291 292 293 294 295 296 297 298 298 299 300 301 302 303 304 305 305 306 306 306 306 306 306 307 307 307 307 307 307 306 306 305 304 304 303 303 302 301 300 299 298 298 297 296 295 294 293 292 292 291 290 290 289 288 287 286 285 283 282 281 280 279 278 277 276 275 273 272 271 269 268 266 263 260 256 251 246 242 239 236 233 231 230
290 291 291 292 293 294 295 296 296 297 298 298 300 301 302 303 304 305 305 306 306 306 307 307 307 308 308 308 308 308 308 308 308 307 307 306 305 305 304 303 302 301 300 299 298 298 297 296 295 294 293 292 292 291 290 290 289 288 287 285 284 283 281 280 279 278 277 276 274 273 271 270 269 268 266 262 258 253 248 243 240 237 234 232 230 231
289 290 291 292 293 294 295 296 297 297 298 299 300 301 303 304 305 306 306 306 307 307 308 308 308 309 309 310 310 310 309 309 309 308 308 307 307 306 305 304 303 302 301 300 299 298 297 296 296 295 294 293 292 291 291 290 289 288 287 286 284 283 282 280 279 278 277 276 275 273 271 269 268 267 264 260 254 249 244 240 236 234 231 230 231 231
289 290 291 292 293 294 295 296 297 298 298 299 300 302 304 305 306 307 307 307 308 308 309 309 310 310 311 311 311 311 310 309 309 308 308 308 308 307 306 305 304 303 302 301 300 299 298 297 296 295 294 293 292 292 291 290 289 288 287 286 285 284 282 281 280 279 278 277 275 273 271 269 267 265 261 256 250 244 239 235 231 229 228 228 230 231
289 290 291 292 293 294 295 296 297 298 300 301 302 303 305 306 306 307 307 308 309 309 310 310 311 312 312 312 312 312 311 310 310 309 309 309 308 308 307 306 304 303 302 301 300 300 299 298 297 296 295 294 293 292 291 290 289 288 287 286 285 284 283 282 281 280 278 277 276 274 272 269 266 262 258 252 245 239 233 229 227 226 226 227 229 230
290 290 291 292 293 294 295 296 297 299 300 302 303 305 306 306 307 307 307 308 309 310 311 311 312 313 313 313 313 312 311 311 311 311 311 311 310 309 308 307 306 305 304 303 302 301 300 299 298 297 296 295 294 293 292 291 289 288 287 286 285 284 283 282 281 280 279 278 276 274 271 268 264 259 254 247 239 233 228 226 226 226 227 228 229 230
289 290 291 292 293 294 295 296 298 299 301 303 304 305 306 307 307 308 308 308 309 311 312 312 313 313 314 313 313 312 312 312 312 312 313 313 312 312 311 309 308 307 306 305 304 303 302 301 300 299 298 296 295 293 292 291 290 289 287 286 285 284 283 282 281 280 279 278 276 273 270 266 261 255 249 241 233 228 226 226 226 227 228 229 229 229
289 290 291 292 293 294 295 296 298 300 302 304 305 305 306 307 308 308 308 309 310 311 312 313 314 314 314 314 313 313 313 313 314 314 314 314 314 313 312 311 310 309 308 307 306 305 304 303 302 301 299 298 296 295 293 292 290 289 288 287 286 285 284 283 282 281 279 278 275 273 269 263 257 251 243 235 229 225 225 225 227 228 229 229 229 229
289 290 291 291 292 294 295 296 298 300 302 304 305 306 307 307 308 308 309 310 311 312 313 314 314 314 315 315 315 315 315 315 315 316 316 315 315 314 313 311 310 310 309 308 308 307 306 305 304 303 301 299 297 295 294 292 291 290 289 288 287 286 285 284 282 281 279 277 275 271 266 260 253 245 237 230 226 225 224 225 226 228 229 229 229 229
289 290 290 291 292 293 295 297 299 302 303 305 305 306 307 307 308 309 310 311 312 313 314 315 315 315 315 316 316 317 317 317 317 317 317 316 316 315 313 312 311 311 310 310 309 308 308 307 305 304 302 300 298 296 295 293 292 291 290 289 288 287 286 285 283 282 280 278 274 269 262 255 247 239 231 226 224 224 225 226 227 227 227 227 228 229
289 290 290 291 292 293 296 298 300 302 304 305 306 306 306 307 308 309 311 312 313 314 314 315 316 316 317 317 317 318 318 318 318 318 317 317 316 315 314 313 312 311 312 311 310 310 309 308 307 305 303 301 299 297 296 294 293 292 291 291 290 289 288 286 285 283 280 277 272 265 258 250 242 234 227 224 223 224 225 226 226 226 226 227 228 230
289 289 289 290 292 294 297 299 301 303 304 305 306 306 306 307 308 310 311 312 313 314 314 315 315 316 317 318 318 319 320 319 319 318 318 317 317 316 315 314 313 312 313 312 311 311 310 309 308 306 304 302 300 299 297 296 295 294 293 292 291 290 289 288 286 284 280 276 270 262 254 246 237 230 225 223 223 223 225 226 226 224 224 227 229 231
288 288 289 291 293 296 298 300 301 303 304 305 305 306 307 307 309 310 311 312 312 313 314 314 315 315 316 317 318 319 320 319 319 319 318 318 318 317 317 315 314 314 314 313 312 312 311 310 308 307 305 304 302 301 299 298 297 296 295 294 293 292 290 289 287 284 280 275 268 260 251 242 234 228 225 223 223 224 225 225 225 223 224 226 229 231
287 288 289 292 295 297 298 299 301 302 303 304 305 305 306 307 309 310 311 312 312 313 314 314 315 316 317 317 318 319 320 320 319 319 319 318 318 318 318 317 316 315 315 314 314 313 312 311 310 308 307 305 304 303 302 300 299 298 297 296 295 293 292 290 288 285 280 273 265 256 247 239 232 228 225 224 224 225 225 225 225 224 224 226 228 229
287 289 290 293 295 297 298 299 300 301 302 303 304 305 306 307 309 310 311 312 313 314 315 315 316 316 317 318 318 319 319 320 320 320 320 319 319 319 319 319 318 317 316 315 315 314 313 312 311 310 309 307 306 305 303 302 301 299 298 297 296 295 293 291 289 285 279 272 262 252 243 236 231 227 226 225 224 224 225 224 224 224 224 225 226 227
288 290 291 293 294 295 297 298 299 300 301 302 303 304 306 307 309 310 312 313 314 314 315 315 316 316 317 317 318 318 319 320 320 320 321 320 320 319 320 320 319 318 317 316 316 315 314 313 312 311 310 308 307 306 304 303 302 301 300 299 297 296 295 292 289 285 278 269 259 248 240 234 229 227 225 224 224 223 223 223 223 223 224 224 224 225
288 289 290 291 292 294 295 297 299 300 301 302 302 304 306 308 309 310 312 313 314 315 315 315 316 316 317 317 318 318 319 320 321 321 321 321 320 320 321 321 320 319 318 318 317 316 315 314 313 312 311 309 308 307 306 304 303 302 301 300 299 298 296 293 289 284 276 265 255 245 237 231 227 225 223 222 222 222 222 222 222 222 222 222 222 224
286 287 289 290 292 293 295 297 298 299 300 301 302 304 306 308 309 311 312 313 314 315 315 316 317 317 318 318 318 319 320 321 322 322 322 321 320 320 321 322 321 320 319 319 318 318 317 316 315 314 313 312 310 308 307 306 305 304 303 302 301 299 297 294 289 282 273 262 251 242 235 229 226 223 221 220 220 220 220 220 219 219 219 219 221 223
285 287 289 290 292 293 295 296 297 298 300 302 303 305 307 309 310 311 312 313 314 315 316 316 317 318 319 319 319 320 321 322 323 323 322 321 320 320 321 322 321 320 320 320 320 319 318 317 317 317 316 314 312 311 309 308 307 306 305 304 302 300 297 294 288 280 271 260 249 240 233 228 224 221 219 218 218 218 217 216 216 215 215 217 220 222
286 287 288 290 291 292 293 294 295 297 299 302 304 306 308 309 310 311 312 313 314 315 316 317 317 318 319 320 320 321 322 323 324 323 322 321 321 321 322 322 322 321 321 321 321 320 319 318 318 318 318 317 315 313 311 310 309 308 307 306 304 301 298 293 287 278 268 257 247 238 231 226 222 219 217 216 216 215 214 213 212 213 214 216 219 220
285 286 287 288 289 291 292 293 294 296 299 301 304 306 308 309 310 311 311 312 313 314 315 317 318 319 320 320 320 321 322 323 324 324 323 322 321 321 322 323 323 322 322 322 321 320 319 318 318 319 319 318 317 315 313 312 311 310 309 308 306 303 299 293 285 275 265 254 244 236 229 224 220 217 216 215 214 212 211 211 211 212 214 216 217 218
284 285 286 287 289 290 292 293 295 297 299 301 303 305 306 308 309 310 310 311 313 314 315 316 318 319 320 320 320 321 322 323 324 324 324 323 322 322 323 324 324 323 323 323 322 321 319 318 318 319 319 319 319 317 316 314 313 312 311 309 307 303 299 292 283 272 261 251 241 233 226 221 218 215 214 213 213 212 211 211 211 213 214 215 215 215
284 284 285 287 288 290 292 294 296 297 299 301 302 304 305 307 308 308 309 311 312 313 314 315 317 318 319 319 320 321 322 323 325 326 326 325 324 324 324 325 325 324 324 324 324 323 322 320 320 320 321 321 320 319 318 317 316 314 312 310 307 303 297 289 279 268 258 248 239 231 224 219 216 214 213 213 213 212 211 212 212 213 213 213 213 213
284 285 286 287 288 290 292 294 295 297 298 300 301 303 304 306 307 307 309 310 311 311 312 314 315 317 318 319 321 322 323 324 326 327 328 327 326 325 326 326 325 325 326 326 327 327 325 324 323 322 322 322 321 321 320 319 317 316 314 311 308 302 295 286 275 265 255 245 237 229 223 218 214 212 212 212 212 211 211 212 213 212 212 213 213 213
284 285 286 287 288 290 292 293 295 297 298 300 301 303 304 305 306 307 308 308 309 310 311 313 314 316 317 319 321 323 324 325 326 327 328 326 326 326 326 326 326 326 327 327 328 328 328 327 326 324 324 323 322 321 320 320 319 318 316 313 308 302 293 283 272 261 252 242 234 227 221 217 213 212 212 211 211 211 211 212 213 212 212 213 213 213
284 284 285 286 288 290 291 293 295 297 299 300 301 302 304 305 306 306 306 307 307 308 310 311 313 314 316 317 319 320 322 323 325 326 326 326 325 326 326 326 327 327 327 327 326 326 327 328 327 326 324 323 322 322 321 321 320 319 317 314 308 300 291 280 268 258 248 239 231 225 220 216 213 212 212 212 212 212 212 213 213 212 211 212 212 211
283 284 285 286 288 289 291 294 296 297 299 300 301 302 304 305 305 305 305 305 306 307 308 310 311 313 314 315 316 317 318 320 323 325 325 325 325 325 326 326 326 327 327 327 326 325 325 325 325 325 324 324 323 323 323 322 322 321 318 314 307 298 288 275 264 253 243 235 228 222 218 215 213 212 212 212 212 212 212 212 212 211 210 210 210 209
283 284 285 286 287 289 291 294 296 297 298 299 300 302 304 305 305 304 304 304 304 305 307 308 310 311 313 314 316 316 317 319 322 324 325 324 323 324 325 325 326 326 327 327 327 326 325 324 324 325 325 324 324 323 323 323 323 322 319 314 306 295 283 270 259 249 241 233 226 220 216 212 211 210 210 210 210 210 211 211 211 211 211 209 209 208
283 283 284 285 287 289 291 293 295 296 297 298 300 301 303 304 304 304 303 303 304 304 306 307 308 309 311 313 315 316 317 319 322 323 323 323 322 323 323 324 325 325 326 326 327 327 326 325 324 324 324 324 324 323 323 323 323 323 320 314 305 292 278 265 254 245 238 232 226 220 215 211 208 207 207 207 208 209 210 211 212 212 213 212 211 209
282 282 283 284 286 289 291 292 294 295 297 298 299 301 302 303 303 303 303 303 303 304 305 306 307 308 310 311 312 314 315 318 320 321 321 321 321 321 321 322 323 324 324 325 325 326 326 325 325 325 324 324 324 324 324 324 324 323 321 315 304 289 274 260 249 241 235 230 225 220 215 211 208 205 204 205 206 208 209 210 210 211 212 213 213 212
282 282 283 284 286 289 290 292 293 294 296 297 299 300 302 303 303 303 303 302 302 303 304 305 306 307 308 310 311 312 314 316 318 319 319 319 320 319 319 320 321 322 322 322 323 324 324 325 325 325 325 324 324 324 324 325 325 324 321 315 304 288 271 257 245 237 232 228 225 220 216 212 208 205 203 203 203 204 205 205 206 207 209 211 212 213
281 282 283 285 287 289 290 291 292 293 295 296 298 299 301 302 303 303 302 302 302 302 303 304 305 307 308 309 310 311 312 314 315 316 317 317 318 318 317 318 319 319 320 320 320 321 321 323 324 325 326 324 323 322 323 324 324 324 321 315 303 286 268 253 241 233 229 227 225 222 218 213 208 204 201 199 199 198 199 199 200 202 205 207 210 211
282 283 284 286 287 288 290 290 291 293 294 295 297 299 300 302 302 302 302 301 301 301 301 302 304 306 307 308 309 310 311 312 313 314 315 315 316 316 316 316 317 317 318 318 319 319 319 320 322 323 325 324 323 322 322 323 324 324 322 316 304 286 265 249 237 231 228 227 226 224 220 214 208 203 200 198 197 197 197 197 198 199 201 203 206 209
283 284 285 286 287 288 289 290 291 292 293 295 296 298 299 301 302 302 302 301 300 300 300 301 303 305 306 308 309 309 310 311 312 313 313 314 314 315 314 314 315 316 317 317 317 317 317 318 319 320 322 322 322 321 321 321 323 323 322 317 306 287 265 248 238 232 229 228 226 224 220 215 209 205 202 200 200 199 199 199 199 199 200 201 204 207
283 284 285 286 287 288 289 290 291 292 293 294 295 297 299 300 302 302 302 301 300 300 300 301 302 304 305 306 308 309 310 310 311 312 312 313 313 313 313 313 313 314 315 316 316 316 316 316 317 319 320 320 320 319 319 320 321 322 321 316 304 286 266 250 240 234 231 229 227 224 221 216 211 207 204 203 202 202 201 202 202 203 202 202 203 204
283 284 285 286 287 288 289 290 290 291 292 293 295 296 298 300 301 302 302 301 300 300 300 301 302 303 305 306 307 308 309 309 310 311 311 311 311 312 312 312 313 314 314 315 315 315 315 315 316 317 319 319 319 319 318 318 319 320 319 314 302 285 267 251 241 235 232 230 228 225 221 217 213 209 207 206 205 203 203 203 205 206 205 204 203 203
283 284 285 286 287 288 289 289 289 290 291 292 294 295 297 299 300 301 301 300 300 300 300 300 301 302 303 305 306 308 309 309 309 309 310 310 310 311 311 312 313 313 314 314 314 314 315 315 315 316 317 318 318 317 317 317 317 318 318 313 302 284 266 252 244 238 234 232 229 226 222 218 214 211 208 207 206 204 203 204 205 205 205 204 203 203
283 284 285 286 287 288 288 288 288 289 290 292 293 295 297 298 299 300 300 300 300 299 299 299 300 300 301 302 304 306 308 309 309 309 309 309 309 310 311 311 313 314 314 314 314 315 315 315 315 315 316 316 316 316 315 315 315 316 316 312 301 282 264 253 247 242 238 234 231 227 224 220 216 212 209 208 206 205 203 203 203 203 203 202 202 202
284 284 285 286 286 286 286 286 287 288 290 291 292 294 296 297 298 299 300 300 300 300 299 299 299 299 299 300 302 305 307 308 309 309 308 308 308 309 310 311 312 313 314 314 314 314 314 314 314 315 315 315 315 314 313 313 313 313 313 311 301 284 266 254 247 243 239 235 232 229 225 221 216 213 211 209 207 205 204 202 202 202 202 201 201 201
284 284 284 285 285 285 285 285 287 288 289 290 291 293 295 296 298 299 299 300 300 300 300 299 299 298 298 299 301 303 305 307 308 309 309 309 309 309 310 311 312 313 313 314 314 314 314 314 314 314 314 313 313 312 311 311 311 311 312 310 303 288 269 256 248 243 238 236 233 229 225 221 217 214 211 209 208 206 204 203 202 202 202 201 200 199
283 283 283 283 284 284 284 285 286 287 288 289 290 292 294 296 297 298 299 300 300 300 300 299 298 297 297 298 300 301 303 304 306 307 308 309 309 310 310 311 312 312 313 314 314 314 314 314 314 313 313 312 311 310 310 310 310 310 310 309 303 290 272 259 249 243 239 236 233 229 225 221 218 215 212 209 208 207 206 204 204 203 202 200 199 199
282 282 283 283 283 283 284 284 285 286 286 288 289 291 293 295 297 298 299 299 300 300 300 300 299 298 298 298 299 300 301 302 303 305 307 308 309 310 311 312 312 313 314 314 314 314 314 313 313 312 311 310 309 308 308 308 309 309 308 308 303 291 273 260 250 244 240 236 233 229 225 222 219 216 213 210 208 206 206 205 205 203 202 200 199 199
282 282 282 282 282 283 283 284 284 285 286 287 289 291 293 294 295 297 298 299 300 300 300 300 299 299 299 299 299 300 300 301 302 303 305 307 309 310 311 312 313 314 315 316 316 315 314 314 313 312 311 309 308 306 306 306 307 307 307 306 301 290 274 260 251 245 241 238 234 230 226 222 218 215 212 210 208 207 206 205 205 204 202 199 198 198
281 281 281 282 282 282 282 283 283 284 285 286 288 290 292 294 295 296 297 299 299 300 300 300 299 299 299 299 300 300 300 300 301 302 304 306 308 310 311 312 314 315 316 317 318 318 316 315 313 312 311 310 308 307 305 304 305 305 305 304 301 291 275 260 251 245 241 238 235 231 227 223 219 215 213 211 209 207 206 205 204 203 201 198 197 197
281 281 281 281 281 281 282 282 283 283 284 286 288 290 292 293 295 296 297 298 299 299 300 300 299 299 299 299 300 299 299 299 300 301 303 306 308 309 310 312 313 314 316 318 319 319 318 316 315 313 312 312 311 309 306 304 304 304 304 303 301 294 278 261 251 245 241 238 235 232 228 224 220 217 213 211 209 206 204 203 203 202 200 197 196 196